Overview Statistics Trail Chart Weather Telemetry Raw packets
 

This is the latest recevied weather packets stored in our database for station/object SP6FIG. If no packets are shown the sender has not sent any weather packets the latest 10 day(s).

<< 1 2 3 4 5 6 7 >>
Time Temp. Humidity Pressure Rain* Wind** Luminosity Snow
1777885229 24.44° C 34% 965.9 hPa - - - -
1777884629 24.44° C 34% 965.9 hPa - - - -
1777884029 24.44° C 34% 965.9 hPa - - - -
1777883429 24.44° C 34% 965.8 hPa - - - -
1777882829 23.89° C 34% 965.6 hPa - - - -
1777882229 23.89° C 34% 965.6 hPa - - - -
1777881629 23.89° C 34% 965.6 hPa - - - -
1777881029 23.89° C 35% 965.6 hPa - - - -
1777880429 23.89° C 35% 965.9 hPa - - - -
1777879829 23.89° C 37% 965.9 hPa - - - -
1777879229 23.33° C 36% 966 hPa - - - -
1777878629 23.33° C 37% 965.9 hPa - - - -
1777730438 24.44° C 23% 972.6 hPa - - - -
1777729838 24.44° C 23% 972.6 hPa - - - -
1777729238 25° C 24% 972.8 hPa - - - -
1777728638 24.44° C 23% 972.9 hPa - - - -
1777728038 23.89° C 26% 973.1 hPa - - - -
1777727439 23.89° C 27% 973.1 hPa - - - -
1777726839 23.89° C 26% 973.4 hPa - - - -
1777726238 23.89° C 25% 973.4 hPa - - - -
1777725638 23.89° C 28% 973.6 hPa - - - -
1777725038 23.89° C 25% 973.7 hPa - - - -
1777724439 23.33° C 28% 973.7 hPa - - - -
1777723838 23.33° C 27% 974 hPa - - - -
1777723249 23.33° C 27% 974.1 hPa - - - -

* Rain since midnight (hover to see other rain measurements)
** Current wind speed in m/s (hover to see current wind gust speed)